sat.trackr.live / text

‹ back to catalog

STARLINK-35116

NORAD 66078 · 2025-235W

PAYLOAD ACTIVE UNKNOWN

§ Identity

Operator
Country
US
Launch date
2025-10-19
Launch site
AFETR
Launch vehicle
Mass (kg)
RCS (m²)

Purposes: comms

External: N2YO · Heavens-Above · Gunter

§ Orbital elements

Epoch: 2026-05-24T17:17:57.597792Z

Period
94.10 min
Inclination
53.1588°
Eccentricity
0.0001218
Mean motion
15.30206735 rev/d
Perigee alt
474.4 km
Apogee alt
476.0 km
Semi-major
6,853.3 km
B*
4.3134e-4
RAAN
252.0081°
Arg perigee
101.7483°
Mean anomaly
258.3654°
Rev number
3,456

§ Raw data

STARLINK-351161 66078U 25235W   26144.72080553  .00012440  00000+0  43134-3 0  99992 66078  53.1588 252.0081 0001218 101.7483 258.3654 15.30206735 34566

JSON: /api/v1/satellites/66078 · /tle

For live sub-satellite position, see the globe view (requires WebGL).

§ Visibility from observer

Set your observer location to see the next 7 days of passes ≥ 10°. The values pass through the URL so the page stays shareable.

No JS? Fill the form by hand. The geolocation button needs JavaScript.